[[{"header":{"parameterUnit":"m.s-1","parameterCategory":1,"la1":30.2991,"la2":30.254,"lo1":-89.0895,"lo2":-89.0444,"dy":0.0017,"dx":0.0017,"nx":28,"ny":28,"refTime":"2025-08-07T09:00:00:Z","depth":0,"parameterNumber":2,"parameterNumberName":"U-component_of_WINDS"},"data":[0,0,0,0,0,0,0,0,0,0,0,0,0,0,0,0,0,0,0,0,0,0,0,0,0,0,0,0,0,0,0,0,0,0,0,0,0,0,0,0,0,0,0,0,0,0,0,0,0,0,0,0,0,0,0,0,0,0,-1.2449,-1.2446,0,-1.2216,-1.2213,-1.2211,-1.205,-1.2048,-1.2047,-1.2046,-1.1808,-1.1803,-1.1797,0,0,0,0,0,0,0,0,0,0,0,0,0,-1.2755,-1.275,-1.2449,-1.2446,-1.2443,-1.2216,-1.2213,-1.221,-1.205,-1.2048,-1.2047,-1.2046,-1.1809,-1.1803,-1.1797,0,0,0,0,0,0,0,0,0,0,0,0,0,-1.2582,-1.2749,-1.245,-1.2336,-1.2324,-1.2217,-1.2213,-1.2209,-1.205,-1.2048,-1.2047,-1.2045,-1.1811,-1.1804,-1.1796,-1.1784,0,0,-1.1772,-1.1769,0,0,0,0,0,0,0,0,-1.2592,-1.2571,-1.2356,-1.2344,-1.2329,-1.216,-1.2233,-1.2067,-1.2051,-1.2154,-1.2046,-1.2044,-1.1926,-1.1909,-1.1869,-1.1773,-1.1763,-1.1772,-1.1767,-1.1763,-1.1761,0,0,0,0,0,0,0,-1.2605,-1.258,-1.2357,-1.2353,-1.2337,-1.2297,-1.227,-1.2201,-1.2053,-1.2145,-1.2133,-1.2107,-1.1919,-1.1877,-1.1862,-1.1759,-1.1772,-1.1765,-1.176,-1.1757,-1.164,-1.1642,0,0,0,0,0,0,-1.2634,-1.2591,-1.2364,-1.235,-1.2459,-1.2293,-1.2263,-1.2216,-1.2053,-1.2027,-1.2109,-1.2101,-1.1891,-1.1872,-1.1854,-1.1828,-1.1763,-1.1756,-1.1752,-1.1638,-1.164,-1.1642,0,0,0,0,0,0,-1.2642,-1.2616,-1.2374,-1.2467,-1.2433,-1.2289,-1.2238,-1.2213,-1.2171,-1.2026,-1.1999,-1.2094,-1.1889,-1.1865,-1.1802,-1.1818,-1.1753,-1.1745,-1.1637,-1.1639,-1.1641,-1.1778,0,0,0,0,0,0,-1.2651,-1.2619,-1.2613,-1.2468,-1.2429,-1.2327,-1.2239,-1.2209,-1.2158,-1.2144,-1.2005,-1.198,-1.1886,-1.1815,-1.1795,-1.1806,-1.1739,-1.1635,-1.1638,-1.1641,-1.1772,-1.1785,-1.1796,0,0,0,0,0,-1.2663,-1.2661,-1.2614,-1.2587,-1.2419,-1.2328,-1.2306,-1.2197,-1.216,-1.2152,-1.2059,-1.1984,-1.1819,-1.181,-1.1786,-1.1795,-1.1633,-1.1637,-1.164,-1.1766,-1.1782,-1.1796,0,0,0,0,0,0,-1.2812,-1.264,-1.2586,-1.2538,-1.2449,-1.2301,-1.2289,-1.2218,-1.2138,-1.2129,-1.1998,-1.1968,-1.192,-1.185,-1.1843,-1.1774,-1.1717,-1.1716,-1.1821,-1.1835,-1.1847,-1.1865,-1.1733,0,0,0,0,0,-1.284,-1.2781,-1.2633,-1.2605,-1.2563,-1.2434,-1.2391,-1.2315,-1.2218,-1.2179,-1.2082,-1.199,-1.1917,-1.1872,-1.1797,-1.1761,-1.1728,-1.1755,-1.1767,-1.1778,-1.1779,-1.1754,-1.1764,-1.1654,-1.1654,-1.1654,0,0,-1.2896,-1.2794,-1.2765,-1.2633,-1.2555,-1.2497,-1.2404,-1.2346,-1.2301,-1.217,-1.2106,-1.2031,-1.192,-1.1871,-1.1844,-1.1812,-1.1802,-1.1783,-1.1792,-1.1787,-1.1758,-1.1769,-1.1778,-1.1656,-1.1656,-1.1656,0,0,-1.2968,-1.2886,-1.2853,-1.2777,-1.266,-1.2574,-1.2566,-1.2429,-1.2374,-1.2307,-1.2208,-1.2152,-1.203,-1.1955,-1.1901,-1.1944,-1.1872,-1.1923,-1.1988,-1.1965,-1.1974,-1.1981,-1.1996,-1.2003,-1.1924,-1.1925,-1.1925,0,-1.3053,-1.2961,-1.2845,-1.2793,-1.2737,-1.2616,-1.2581,-1.2513,-1.2378,-1.2343,-1.2308,-1.2152,-1.2068,-1.1999,-1.201,-1.197,-1.1957,-1.1939,-1.1982,-1.1988,-1.1993,-1.2006,-1.2012,-1.1932,-1.1931,-1.193,-1.193,0,-1.307,-1.3008,-1.2996,-1.2868,-1.2811,-1.2769,-1.2646,-1.2602,-1.2531,-1.2449,-1.2382,-1.2278,-1.2179,-1.2157,-1.2088,-1.2078,-1.2062,-1.2007,-1.1947,-1.2012,-1.2022,-1.2026,-1.1942,-1.1939,-1.1937,-1.1935,0,0,-1.3231,-1.304,-1.3037,-1.2977,-1.2839,-1.2789,-1.2741,-1.2644,-1.2609,-1.252,-1.2476,-1.2375,-1.2322,-1.2261,-1.2182,-1.2162,-1.2203,-1.2108,-1.2104,-1.213,-1.2186,-1.2228,-1.2236,-1.2154,-1.2154,-1.2155,-1.2195,0,-1.3282,-1.3189,-1.3083,-1.3026,-1.2967,-1.2851,-1.2808,-1.2719,-1.2641,-1.2579,-1.2492,-1.2422,-1.2359,-1.2321,-1.2296,-1.2204,-1.2212,-1.2199,-1.2112,-1.211,-1.2144,-1.2241,-1.2286,-1.2329,-1.2198,-1.2199,-1.2199,0,-1.333,-1.3247,-1.3184,-1.3051,-1.3022,-1.2986,-1.2889,-1.2831,-1.2728,-1.2672,-1.2604,-1.2519,-1.2461,-1.2409,-1.2328,-1.2321,-1.2279,-1.2228,-1.2227,-1.2215,-1.2159,-1.2232,-1.234,-1.2347,-1.2204,-1.2204,-1.2203,0,-1.3454,-1.3326,-1.3271,-1.3224,-1.3067,-1.3045,-1.2978,-1.2872,-1.2821,-1.2736,-1.2701,-1.2611,-1.2562,-1.2494,-1.2387,-1.2358,-1.2317,-1.2256,-1.2269,-1.2272,-1.2266,-1.2268,-1.237,-1.224,-1.2239,-1.2239,-1.2239,0,-1.3522,-1.3489,-1.3325,-1.3292,-1.3251,-1.3129,-1.3091,-1.3014,-1.2921,-1.2871,-1.2764,-1.2719,-1.258,-1.2519,-1.2434,-1.238,-1.2359,-1.2312,-1.229,-1.2321,-1.2328,-1.2292,-1.2287,-1.2241,-1.2241,-1.224,-1.224,0,-1.3654,-1.3543,-1.3476,-1.3333,-1.3296,-1.3272,-1.3149,-1.3112,-1.3028,-1.2965,-1.2944,-1.2811,-1.2733,-1.2619,-1.2506,-1.2449,-1.2408,-1.2372,-1.2444,-1.243,-1.2451,-1.245,-1.2533,-1.2537,-1.2406,-1.2407,-1.2408,0,-1.3705,-1.3677,-1.353,-1.3489,-1.3426,-1.3361,-1.3308,-1.3187,-1.3136,-1.3015,-1.2993,-1.2906,-1.2831,-1.2712,-1.2605,-1.2518,-1.248,-1.2514,-1.2466,-1.2498,-1.248,-1.2483,-1.248,-1.2527,-1.2529,-1.253,-1.2532,0,-1.3808,-1.3755,-1.3682,-1.3591,-1.353,-1.3452,-1.3369,-1.3341,-1.3202,-1.315,-1.3069,-1.3011,-1.2895,-1.2811,-1.271,-1.2641,-1.2563,-1.2548,-1.2546,-1.2578,-1.2621,-1.2598,-1.2475,-1.2546,-1.2545,-1.2544,-1.2543,-1.2542,-1.3901,-1.387,-1.3762,-1.3685,-1.3609,-1.3534,-1.3492,-1.3402,-1.3333,-1.3229,-1.3162,-1.3085,-1.298,-1.2836,-1.2771,-1.2708,-1.2676,-1.2674,-1.2673,-1.2675,-1.2686,-1.2631,-1.2689,-1.2689,-1.2688,-1.2688,-1.2687,0,-1.3998,-1.3923,-1.3853,-1.374,-1.368,-1.3611,-1.3516,-1.3469,-1.3403,-1.3312,-1.324,-1.3146,-1.3064,-1.295,-1.2859,-1.2831,-1.2793,-1.2811,-1.2812,-1.2797,-1.272,-1.273,-1.2843,-1.2843,-1.2843,-1.2843,-1.2843,-1.2843,-1.4042,-1.3986,-1.3919,-1.3825,-1.3749,-1.3672,-1.3623,-1.3553,-1.348,-1.3381,-1.3311,-1.3238,-1.3138,-1.3039,-1.296,-1.2928,-1.29,-1.2929,-1.2887,-1.2817,-1.2803,-1.2789,-1.2798,-1.2924,-1.2924,-1.2969,-1.297,-1.297]},{"header":{"parameterUnit":"m.s-1","parameterCategory":1,"la1":30.2991,"la2":30.254,"lo1":-89.0895,"lo2":-89.0444,"dy":0.0017,"dx":0.0017,"nx":28,"ny":28,"refTime":"2025-08-07T09:00:00:Z","depth":0,"parameterNumber":3,"parameterNumberName":"V-component_of_WINDS"},"data":[0,0,0,0,0,0,0,0,0,0,0,0,0,0,0,0,0,0,0,0,0,0,0,0,0,0,0,0,0,0,0,0,0,0,0,0,0,0,0,0,0,0,0,0,0,0,0,0,0,0,0,0,0,0,0,0,0,0,-0.4724,-0.4725,0,-0.4901,-0.4903,-0.4905,-0.4977,-0.4977,-0.4976,-0.4976,-0.5157,-0.5162,-0.5167,0,0,0,0,0,0,0,0,0,0,0,0,0,-0.4446,-0.4451,-0.4723,-0.4726,-0.4728,-0.4901,-0.4903,-0.4905,-0.4977,-0.4977,-0.4976,-0.4976,-0.5155,-0.5161,-0.5168,0,0,0,0,0,0,0,0,0,0,0,0,0,-0.4589,-0.4452,-0.4723,-0.4784,-0.4792,-0.49,-0.4903,-0.4906,-0.4977,-0.4977,-0.4976,-0.4975,-0.5153,-0.5161,-0.5169,-0.5229,0,0,-0.5192,-0.5196,0,0,0,0,0,0,0,0,-0.4581,-0.4599,-0.4773,-0.478,-0.4789,-0.4916,-0.4872,-0.5014,-0.4977,-0.4907,-0.4976,-0.4975,-0.5077,-0.5091,-0.5126,-0.5237,-0.5245,-0.5193,-0.5198,-0.5201,-0.5203,0,0,0,0,0,0,0,-0.4571,-0.4592,-0.4794,-0.4776,-0.4785,-0.4803,-0.4823,-0.4899,-0.4993,-0.4913,-0.4918,-0.4939,-0.5081,-0.5118,-0.5131,-0.5248,-0.5193,-0.52,-0.5205,-0.5208,-0.5418,-0.5418,0,0,0,0,0,0,-0.4551,-0.4583,-0.4788,-0.4799,-0.4681,-0.4808,-0.483,-0.4876,-0.4993,-0.501,-0.4939,-0.4941,-0.5105,-0.5122,-0.5137,-0.5216,-0.5201,-0.5208,-0.5213,-0.5417,-0.5418,-0.5419,0,0,0,0,0,0,-0.4545,-0.4569,-0.4781,-0.4693,-0.4721,-0.4814,-0.4864,-0.488,-0.4917,-0.5012,-0.5029,-0.4959,-0.5105,-0.5126,-0.5206,-0.5223,-0.5212,-0.5219,-0.5416,-0.5417,-0.5418,-0.5373,0,0,0,0,0,0,-0.4537,-0.4566,-0.459,-0.4693,-0.4726,-0.4846,-0.4865,-0.4884,-0.493,-0.4935,-0.5036,-0.5052,-0.5107,-0.5194,-0.5213,-0.5234,-0.5225,-0.5415,-0.5416,-0.5418,-0.5373,-0.5373,-0.5372,0,0,0,0,0,-0.4526,-0.457,-0.4591,-0.4615,-0.4758,-0.4847,-0.4866,-0.4928,-0.4931,-0.4956,-0.5017,-0.5049,-0.5218,-0.5201,-0.5224,-0.5247,-0.5414,-0.5416,-0.5418,-0.5374,-0.5373,-0.5372,0,0,0,0,0,0,-0.4467,-0.4585,-0.4609,-0.4687,-0.4756,-0.4859,-0.4892,-0.4925,-0.4994,-0.4996,-0.507,-0.5092,-0.5165,-0.5214,-0.5193,-0.5311,-0.5318,-0.5325,-0.5277,-0.5277,-0.5276,-0.5263,-0.5232,0,0,0,0,0,-0.4462,-0.4525,-0.4625,-0.4684,-0.4718,-0.4799,-0.484,-0.4882,-0.4957,-0.4986,-0.5054,-0.5125,-0.5194,-0.5238,-0.5307,-0.5381,-0.5404,-0.5408,-0.5407,-0.5406,-0.5411,-0.5454,-0.5456,-0.5425,-0.5425,-0.5425,0,0,-0.4455,-0.4527,-0.4562,-0.4674,-0.4733,-0.4796,-0.4823,-0.4889,-0.4937,-0.4996,-0.5075,-0.5127,-0.5211,-0.5288,-0.5325,-0.5331,-0.5425,-0.5408,-0.5407,-0.5413,-0.5456,-0.5459,-0.5461,-0.5427,-0.5427,-0.5426,0,0,-0.4473,-0.4534,-0.459,-0.4648,-0.4737,-0.479,-0.4803,-0.4901,-0.4938,-0.5019,-0.5065,-0.5122,-0.524,-0.5298,-0.5343,-0.5383,-0.5415,-0.5404,-0.54,-0.5441,-0.5443,-0.5446,-0.546,-0.5464,-0.5408,-0.5408,-0.5408,0,-0.4452,-0.4549,-0.4615,-0.4678,-0.4726,-0.4783,-0.484,-0.4894,-0.5,-0.5032,-0.5037,-0.5186,-0.5247,-0.5338,-0.5347,-0.5382,-0.5399,-0.5393,-0.5438,-0.5441,-0.5444,-0.5459,-0.5464,-0.5406,-0.5406,-0.5407,-0.5407,0,-0.4519,-0.4586,-0.4621,-0.4722,-0.4774,-0.4834,-0.4908,-0.4953,-0.499,-0.5043,-0.5124,-0.5199,-0.5284,-0.5309,-0.5345,-0.5405,-0.5406,-0.5423,-0.5432,-0.5444,-0.5459,-0.5465,-0.5403,-0.5404,-0.5405,-0.5405,0,0,-0.4505,-0.4642,-0.4653,-0.47,-0.4802,-0.4855,-0.4917,-0.5001,-0.5038,-0.5109,-0.5163,-0.5262,-0.5278,-0.5329,-0.5373,-0.5409,-0.5436,-0.5422,-0.5425,-0.5422,-0.5506,-0.5492,-0.5498,-0.5457,-0.5458,-0.5459,-0.5499,0,-0.4537,-0.4652,-0.4712,-0.4801,-0.4864,-0.4919,-0.4973,-0.5041,-0.5092,-0.5153,-0.5209,-0.5278,-0.5294,-0.5326,-0.5363,-0.5424,-0.5454,-0.5422,-0.5508,-0.5511,-0.5486,-0.5506,-0.5492,-0.5526,-0.5505,-0.5506,-0.5507,0,-0.459,-0.4661,-0.4756,-0.485,-0.4879,-0.4927,-0.5008,-0.5066,-0.5144,-0.5178,-0.5235,-0.5278,-0.5346,-0.5349,-0.5444,-0.5421,-0.546,-0.5495,-0.5498,-0.5508,-0.551,-0.5517,-0.5538,-0.5543,-0.5517,-0.5516,-0.5515,0,-0.457,-0.4689,-0.4762,-0.48,-0.4912,-0.4944,-0.4993,-0.507,-0.5117,-0.5188,-0.5219,-0.5296,-0.5339,-0.5398,-0.5461,-0.5457,-0.5549,-0.5557,-0.558,-0.5578,-0.5597,-0.5595,-0.5624,-0.5621,-0.5621,-0.5621,-0.5621,0,-0.46,-0.4656,-0.4754,-0.4799,-0.4863,-0.4932,-0.4994,-0.5046,-0.5115,-0.5171,-0.5223,-0.5273,-0.5353,-0.5414,-0.5464,-0.5535,-0.5553,-0.5583,-0.5596,-0.5579,-0.5575,-0.5606,-0.5605,-0.5623,-0.5622,-0.5622,-0.5622,0,-0.4588,-0.4657,-0.4739,-0.4839,-0.4865,-0.4908,-0.4993,-0.5038,-0.5092,-0.5162,-0.5182,-0.5266,-0.534,-0.5409,-0.5508,-0.5541,-0.5613,-0.5629,-0.5586,-0.5593,-0.5612,-0.5609,-0.5662,-0.5673,-0.5661,-0.5661,-0.5661,0,-0.4603,-0.4647,-0.4751,-0.4793,-0.484,-0.4905,-0.4953,-0.5022,-0.507,-0.5162,-0.5196,-0.5274,-0.5341,-0.5457,-0.5527,-0.5603,-0.5621,-0.5634,-0.5633,-0.5614,-0.5622,-0.5618,-0.5623,-0.5633,-0.5633,-0.5633,-0.5633,0,-0.4621,-0.4653,-0.472,-0.4798,-0.4854,-0.4919,-0.4985,-0.5016,-0.5098,-0.5148,-0.5225,-0.5277,-0.5378,-0.5455,-0.5539,-0.5588,-0.5624,-0.5633,-0.5642,-0.5625,-0.5599,-0.5614,-0.5584,-0.5631,-0.5631,-0.5631,-0.5631,-0.5632,-0.4624,-0.4666,-0.4746,-0.4818,-0.4876,-0.4937,-0.4985,-0.5044,-0.5109,-0.5197,-0.5234,-0.5312,-0.5389,-0.5506,-0.5555,-0.5617,-0.5624,-0.5638,-0.5641,-0.5643,-0.564,-0.5588,-0.5632,-0.5632,-0.5633,-0.5633,-0.5633,0,-0.4645,-0.4699,-0.4765,-0.4857,-0.4914,-0.4943,-0.5018,-0.5064,-0.5132,-0.5201,-0.5266,-0.5354,-0.5429,-0.5504,-0.5583,-0.5618,-0.5637,-0.5637,-0.5635,-0.5646,-0.5629,-0.5613,-0.562,-0.562,-0.562,-0.562,-0.562,-0.562,-0.4663,-0.4736,-0.4777,-0.4879,-0.4933,-0.501,-0.505,-0.5107,-0.5162,-0.5259,-0.5321,-0.537,-0.5442,-0.5527,-0.5597,-0.5617,-0.5644,-0.5639,-0.5664,-0.5647,-0.5647,-0.5647,-0.5633,-0.5644,-0.5644,-0.5676,-0.5676,-0.5676]}]]